HULIANGWANG DIGUI-02 (62324 NORAD) Tracking and Keplerian Element Data

This shows tracking and keplerian element data for the satellite.

Feedback or suggestion? Click here.




ElementValue
Catalog62324
NameHULIANGWANG DIGUI-02
Epoch Orbit661
Epoch Day34.80537789
Epoch Year2025
RAAN151.8214
Inclination86.5078
Eccentricity0.001181
Argument of Perigee159.1265
Mean Anonmoly201.0361
Mean Motion13.37547444
Decay Rate1.08E-06
L11 62324U 24240B 25034.80537789 .00000108 00000+0 17674-3 0 9996
L22 62324 86.5078 151.8214 0011810 159.1265 201.0361 13.37547444 6613



Live tracking and technical data element details for HULIANGWANG DIGUI-02 (NORAD 62324). HULIANGWANG DIGUI-02 can be tracked NOW for your location showing map with azimuth and elevation plus other details from your city location.







IsCatalogInMostPopularTable: catalog: 62324, numindb: 10
Update: records affected: 1



GetName: 62324 HULIANGWANG DIGUI-02

Hit Count: updated at: Sun, 18 May 2025 22:23:21 GMT